Weather History for West Yellowstone, MT

Change the Weather History Date:

Friday, November 30, 2012

  Actual Average Record
Temperature  
Mean Temperature 36 °F -  
Max Temperature 39 °F 25 °F 39 °F (2012)
Min Temperature 32 °F 4 °F 6 °F (2010)
Degree Days  
Heating Degree Days 30    
Moisture  
Dew Point -    
Average Humidity    
Maximum Humidity    
Minimum Humidity    
Precipitation  
Precipitation 0.00 in - - ()
Sea Level Pressure  
Sea Level Pressure 29.87 in    
Wind  
Wind Speed 7 mph (SSW)    
Max Wind Speed 17 mph    
Max Gust Speed 24 mph    
Visibility 6 miles    
Events Rain , Snow    
Averages and records for this station are not official NWS values.
T = Trace of Precipitation, MM = Missing Value Source: NWS Daily Summary

Daily Weather History Graph

Daily Weather History Graph

Search for Another Location

Airport:

Trip Planner

Search our weather history database for the weather conditions in past years. The results will help you decide how hot, cold, wet, or windy it might be!

Date:

Astronomy

Nov. 30, 2012 Rise Set
Actual Time 7:40 AM MST 4:45 PM MST
Civil Twilight 7:08 AM MST 5:18 PM MST
Nautical Twilight 6:31 AM MST 5:54 PM MST
Astronomical Twilight 5:56 AM MST 6:29 PM MST
Moon 6:44 PM MST (11/30) 9:15 AM MST (11/30)
Length of Visible Light 10h 10m
Length of Day
9h 04m
Waning Gibbous, 96% of the Moon is Illuminated
Nov 30
Waning Gibbous
Dec 6
Last Quarter
Dec 13
New
Dec 19
First Quarter
Dec 28
Full

Hourly Weather History & Observations

Time (MST) Temp. Windchill Dew Point Humidity Pressure Visibility Wind Dir Wind Speed Gust Speed Precip Events Conditions
12:10 AM 35.6 °F 28.6 °F - N/A% 30.00 in 10.0 mi SW 9.2 mph - N/A   Mostly Cloudy
12:30 AM 35.6 °F 25.5 °F - N/A% 29.98 in 10.0 mi SSW 17.3 mph 24.2 mph N/A   Mostly Cloudy
12:50 AM 37.4 °F 32.1 °F - N/A% 29.98 in 10.0 mi WSW 6.9 mph 24.2 mph N/A   Mostly Cloudy
1:10 AM 37.4 °F 30.3 °F - N/A% 29.99 in 10.0 mi SW 10.4 mph 19.6 mph N/A   Overcast
1:30 AM 37.4 °F 27.8 °F - N/A% 29.97 in 10.0 mi SW 17.3 mph 24.2 mph N/A   Overcast
1:50 AM 37.4 °F 28.9 °F - N/A% 29.97 in 10.0 mi SSW 13.8 mph 19.6 mph N/A   Overcast
2:10 AM 35.6 °F 28.6 °F - N/A% 29.97 in 10.0 mi SSW 9.2 mph - N/A   Overcast
2:30 AM 33.8 °F - - N/A% 29.98 in 10.0 mi Calm Calm - N/A   Overcast
2:50 AM 33.8 °F 29.6 °F - N/A% 29.96 in 10.0 mi North 4.6 mph - N/A   Overcast
3:10 AM 35.6 °F 32.8 °F - N/A% 29.95 in 10.0 mi West 3.5 mph - N/A   Overcast
3:30 AM 35.6 °F 32.8 °F - N/A% 29.95 in 10.0 mi WNW 3.5 mph - N/A   Overcast
3:50 AM 32.0 °F 28.7 °F - N/A% 29.94 in 10.0 mi South 3.5 mph - N/A   Overcast
4:10 AM 33.8 °F 30.8 °F - N/A% 29.93 in 8.0 mi South 3.5 mph - N/A   Overcast
4:30 AM 33.8 °F 30.8 °F - N/A% 29.93 in 10.0 mi South 3.5 mph - N/A   Overcast
4:50 AM 39.2 °F 30.8 °F - N/A% 29.92 in 10.0 mi SW 15.0 mph 24.2 mph N/A   Mostly Cloudy
5:10 AM 37.4 °F 34.9 °F - N/A% 29.91 in 10.0 mi SSE 3.5 mph 17.3 mph N/A   Mostly Cloudy
5:30 AM 39.2 °F 35.0 °F - N/A% 29.90 in 10.0 mi WSW 5.8 mph - N/A   Overcast
5:50 AM 37.4 °F - - N/A% 29.90 in 10.0 mi Calm Calm - N/A   Overcast
6:10 AM 37.4 °F 34.9 °F - N/A% 29.90 in 10.0 mi NW 3.5 mph - N/A   Overcast
6:30 AM 37.4 °F 32.8 °F - N/A% 29.90 in 10.0 mi WSW 5.8 mph - N/A   Overcast
6:50 AM 37.4 °F 34.9 °F - N/A% 29.89 in 10.0 mi South 3.5 mph - N/A   Overcast
7:10 AM 35.6 °F 30.7 °F - N/A% 29.89 in 10.0 mi SSE 5.8 mph - N/A   Mostly Cloudy
7:30 AM 35.6 °F 31.7 °F - N/A% 29.89 in 9.0 mi SE 4.6 mph - N/A   Overcast
7:50 AM 35.6 °F 31.7 °F - N/A% 29.89 in 6.0 mi ENE 4.6 mph - N/A Rain Light Rain
8:10 AM 35.6 °F - - N/A% 29.89 in 4.0 mi Calm Calm - N/A Rain Light Rain
8:30 AM 33.8 °F 29.6 °F - N/A% 29.89 in 1.8 mi SE 4.6 mph - N/A Snow Light Snow
8:50 AM 32.0 °F 25.6 °F - N/A% 29.89 in 1.8 mi SE 6.9 mph - N/A Snow Light Snow
9:10 AM 32.0 °F 24.2 °F - N/A% 29.88 in 3.0 mi SSE 9.2 mph - N/A   Mostly Cloudy
9:30 AM 32.0 °F 26.4 °F - N/A% 29.87 in 3.0 mi East 5.8 mph - N/A Rain Light Rain
9:50 AM 33.8 °F 29.6 °F - N/A% 29.88 in 3.0 mi ENE 4.6 mph - N/A Rain Light Rain
10:10 AM 35.6 °F 31.7 °F - N/A% 29.88 in 5.0 mi WSW 4.6 mph - N/A Rain Light Rain
10:30 AM 35.6 °F 32.8 °F - N/A% 29.87 in 4.0 mi SE 3.5 mph - N/A Rain Light Rain
10:50 AM 33.8 °F 30.8 °F - N/A% 29.87 in 2.5 mi South 3.5 mph - N/A Rain Light Rain
11:10 AM 35.6 °F 29.2 °F - N/A% 29.85 in 3.0 mi SW 8.1 mph - N/A Rain Light Rain
11:30 AM 35.6 °F 29.9 °F - N/A% 29.85 in 2.5 mi WSW 6.9 mph - N/A Rain Light Rain
11:50 AM 35.6 °F 30.7 °F - N/A% 29.84 in 3.0 mi SSW 5.8 mph - N/A Rain Light Rain
12:10 PM 35.6 °F 30.7 °F - N/A% 29.82 in 4.0 mi SW 5.8 mph - N/A Rain Light Rain
12:30 PM 33.8 °F 30.8 °F - N/A% 29.82 in 3.0 mi WSW 3.5 mph - N/A Rain Light Rain
12:50 PM 33.8 °F 26.4 °F - N/A% 29.82 in 2.5 mi SSW 9.2 mph - N/A   Partly Cloudy
1:10 PM 32.0 °F 25.6 °F - N/A% 29.80 in 1.2 mi South 6.9 mph - N/A Snow Light Snow
1:30 PM 32.0 °F 26.4 °F - N/A% 29.81 in 1.2 mi SSW 5.8 mph - N/A Snow Light Snow
1:50 PM 33.8 °F 28.6 °F - N/A% 29.81 in 2.5 mi SW 5.8 mph - N/A Snow Light Snow
2:10 PM 32.0 °F 26.4 °F - N/A% 29.81 in 1.5 mi SW 5.8 mph - N/A Snow Light Snow
2:30 PM 32.0 °F 26.4 °F - N/A% 29.81 in 2.0 mi SW 5.8 mph - N/A Snow Light Snow
2:50 PM 32.0 °F - - N/A% 29.81 in 1.2 mi Calm Calm - N/A Snow Light Snow
3:10 PM 32.0 °F - - N/A% 29.80 in 1.0 mi Calm Calm - N/A Snow Light Snow
3:30 PM 32.0 °F 28.7 °F - N/A% 29.81 in 1.2 mi WNW 3.5 mph - N/A Snow Light Snow
3:50 PM 32.0 °F - - N/A% 29.81 in 1.2 mi Calm Calm - N/A Snow Light Snow
4:10 PM 32.0 °F - - N/A% 29.82 in 2.0 mi Calm Calm - N/A Snow Light Snow
4:30 PM 33.8 °F 26.4 °F - N/A% 29.82 in 4.0 mi SW 9.2 mph - N/A Rain Light Rain
4:50 PM 33.8 °F 24.8 °F - N/A% 29.81 in 2.5 mi SW 12.7 mph 23.0 mph N/A Rain Light Rain
5:10 PM 33.8 °F 25.3 °F - N/A% 29.81 in 4.0 mi SW 11.5 mph 20.7 mph N/A Rain Light Rain
5:30 PM 33.8 °F 26.4 °F - N/A% 29.81 in 3.0 mi WSW 9.2 mph 19.6 mph N/A   Mostly Cloudy
6:10 PM 35.6 °F 27.1 °F - N/A% 29.81 in 7.0 mi SW 12.7 mph 18.4 mph N/A Rain Light Rain
6:30 PM 35.6 °F 28.6 °F - N/A% 29.81 in 9.0 mi SW 9.2 mph 17.3 mph N/A Rain Light Rain
6:50 PM 33.8 °F 25.8 °F - N/A% 29.82 in 5.0 mi SSW 10.4 mph - N/A Rain Light Rain
7:10 PM 33.8 °F 28.6 °F - N/A% 29.82 in 3.0 mi SSW 5.8 mph - N/A   Mostly Cloudy
7:30 PM 33.8 °F 30.8 °F - N/A% 29.82 in 7.0 mi NNE 3.5 mph - N/A Rain Light Rain
7:50 PM 33.8 °F 30.8 °F - N/A% 29.82 in 9.0 mi NNE 3.5 mph - N/A Rain Light Rain
8:10 PM 33.8 °F - - N/A% 29.82 in 5.0 mi Calm Calm - N/A Rain Light Rain
8:30 PM 35.6 °F - - N/A% 29.82 in 5.0 mi Calm Calm - N/A   Haze
8:50 PM 35.6 °F 29.9 °F - N/A% 29.82 in 7.0 mi SW 6.9 mph - N/A   Overcast
9:10 PM 33.8 °F 25.8 °F - N/A% 29.82 in 4.0 mi SSW 10.4 mph 16.1 mph N/A Rain Light Rain
9:30 PM 32.0 °F 25.6 °F - N/A% 29.82 in 2.5 mi South 6.9 mph 20.7 mph N/A Snow Light Snow
10:10 PM 32.0 °F 26.4 °F - N/A% 29.82 in 3.0 mi SSW 5.8 mph - N/A Snow Light Snow
10:30 PM 32.0 °F 26.4 °F - N/A% 29.82 in 1.8 mi SSW 5.8 mph - N/A Snow Light Snow
11:10 PM 32.0 °F 22.1 °F - N/A% 29.82 in 1.5 mi South 13.8 mph 21.9 mph N/A   Overcast
11:30 PM 32.0 °F 22.5 °F - N/A% 29.83 in 2.0 mi SW 12.7 mph 23.0 mph N/A Snow Light Snow
11:50 PM 32.0 °F - - N/A% 29.83 in 2.5 mi Calm Calm - N/A Snow Light Snow